Regional Weather Roundup
Issued by NWS

Home | Current Version | Previous Version | Text Only | Print | Product List | Glossary Off
Versions: 1 2 3 4 5 6 7 8 9 10 11 12 13 14 15 16 17 18 19 20 21 22 23 24 25 26

000
ASUS45 KTFX 220510
RWRMT
MONTANA REGIONAL WEATHER ROUNDUP
NATIONAL WEATHER SERVICE GREAT FALLS MT
1100 PM MDT MON AUG 21 2017

NOTE: "FAIR" INDICATES FEW OR NO CLOUDS BELOW 12000 FEET WITH NO
SIGNIFICANT WEATHER AND/OR OBSTRUCTIONS TO VISIBILITY.

MTZ001>007-043-220600-
WEST OF THE DIVIDE

CITY           SKY/WX    TMP DP  RH WIND       PRES   REMARKS
KALISPELL      PTCLDY    58  47  66 CALM      30.12S
MISSOULA       PTCLDY    67  38  34 CALM      30.13S
BUTTE          CLOUDY    58  37  45 E3        30.27R
MULLAN PASS    PTCLDY    62  36  37 N3        30.28F
ANACONDA         N/A     59  34  38 SW3       30.24R
DEER LODGE       N/A     55  37  50 CALM      30.24R
EUREKA           N/A     61  39  44 MISG      30.10F
HAMILTON         N/A     57  45  62 CALM      30.16S
LIBBY            N/A     63  43  48 SE5       30.09S
RONAN            N/A     55  45  69 CALM      30.17S
$$

MTZ008-052>055-220600-
SOUTHWEST MONTANA

CITY           SKY/WX    TMP DP  RH WIND       PRES   REMARKS
BOZEMAN        CLEAR     59  38  45 S8        30.20S
DILLON         CLEAR     58  36  43 S8        30.22R
W YELLOWSTONE  CLEAR     50  36  57 NE6       30.33R
ENNIS          PTCLDY    57  32  38 SE6       30.29R
THREE FORKS      N/A     54  38  54 CALM      30.16S
$$

MTZ009-010-012-014-046-048-049-054-220600-
EAST SLOPES AND CENTRAL MONTANA

CITY           SKY/WX    TMP DP  RH WIND       PRES   REMARKS
CUT BANK       MOCLDY    62  35  36 SE7       30.17S
GREAT FALLS    PTCLDY    67  34  29 E10       30.16S
MALMSTROM AFB  PTCLDY    61  35  38 SE6       30.16S
HELENA         CLOUDY    68  35  29 W8        30.15F
CHOTEAU          N/A     64  36  34 CALM      30.20S
FAIRFIELD        N/A     65  32  29 E7        30.17R
$$

MTZ011-013-016-021-045-047-050-051-220600-
NORTH CENTRAL MONTANA

CITY           SKY/WX    TMP DP  RH WIND       PRES   REMARKS
HAVRE          CLOUDY    64  38  38 SE7       30.14F
LEWISTOWN      PTCLDY    58  36  43 E6        30.21S
N BAR RANCH      N/A     54  32  43 NW6       30.27S
CHINOOK          N/A     61  43  51 CALM      30.15S
GRASS RANGE      N/A     57  34  41 SW6       30.19R
$$

MTZ017>020-022>027-061-062-220600-
NORTHEAST MONTANA

CITY           SKY/WX    TMP DP  RH WIND       PRES   REMARKS
GLASGOW        CLOUDY    58  29  33 E12       30.16R
JORDAN           N/A     56  33  42 CALM      30.17S
SIDNEY         CLEAR     53  34  48 NW6       30.17S
WOLF POINT     CLOUDY    55  31  39 CALM      30.17R
MALTA          PTCLDY    55  43  62 CALM      30.16R
PLENTYWOOD       N/A     55  34  44 CALM      30.17R
$$

MTZ028>42-056>058-220600-
SOUTHCENTRAL AND SOUTHEAST MONTANA

CITY           SKY/WX    TMP DP  RH WIND       PRES   REMARKS
BAKER          CLOUDY    54  35  48 SE5       30.21R
BILLINGS       PTCLDY    71  32  23 SE6       30.18R
LIVINGSTON     CLEAR     63  33  32 SE8       30.21R
MILES CITY     PTCLDY    65  34  31 NE7       30.17R
BIG TIMBER     CLEAR     63  32  31 NE8       30.24S
LAUREL           N/A     65  32  29 CALM      30.16F
$$

REGIONAL REPORTS...DAKOTAS

CITY           SKY/WX    TMP DP  RH WIND       PRES   REMARKS
WILLISTON      CLEAR     54  37  52 NE3       30.16S
MINOT          CLEAR     58  41  53 W9        30.11R
DICKINSON      CLEAR     52  38  58 W7        30.16S
BEACH          CLOUDY    46  36  66 CALM      30.22S
CROSBY           N/A     52  36  54 W8        30.16S
TIOGA            N/A     48  39  71 W5        30.18R
WATFORD CITY     N/A     48  36  61 CALM      30.16S
BISMARCK       CLEAR     57  46  66 NW5       30.13R
GRAND FORKS    CLEAR     53  52  96 W7        29.99R
FARGO          CLEAR     59  53  80 N10       29.99R
BUFFALO SD       N/A     63  39  41 CALM      30.14S
RAPID CITY     CLEAR     54  41  61 NE7       30.21R
$$

REGIONAL REPORTS...WYOMING/IDAHO/WASHINGTON

CITY           SKY/WX    TMP DP  RH WIND       PRES   REMARKS
GILLETTE       CLEAR     51  34  52 W3        30.25R
SHERIDAN       CLEAR     51  41  68 S5        30.23R
BUFFALO WY     CLEAR     58  34  40 W9        30.29R
CODY           CLEAR     59  34  39 S3        30.27S
YELLOWSTONE LA   N/A     45  36  70 CALM      30.42S
IDAHO FALLS    CLEAR     58  40  51 CALM      30.20R
SALMON         CLEAR     59  40  49 CALM      30.15R
BOISE          CLEAR     70  41  34 SW3       30.05S
SPOKANE        PTCLDY    70  41  34 SW6       30.08S
$$

REGIONAL REPORTS...ALBERTA

CITY           SKY/WX    TMP DP  RH WIND       PRES   REMARKS
EDMONTON       CLOUDY    61  54  77 SW6       30.08R
CALGARY        PTCLDY    61  43  51 S6        30.14S
LETHBRIDGE     CLEAR     54  41  62 SE6       30.11F
MEDICINE HAT   CLEAR     61  39  44 VRB2      30.11S
$$

REGIONAL REPORTS...SASKATCHEWAN

CITY           SKY/WX    TMP DP  RH WIND       PRES   REMARKS
SWIFT CURRENT  CLEAR     55  34  44 E3        30.15F
REGINA         CLEAR     48  34  57 W5        30.14R
SASKATOON      CLEAR     52  41  66 SW5       30.12S
$$




USA.gov is the U.S. government's official web portal to all federal, state and local government web resources and services.